Location: Pallagorio
(39.3000°N, 16.9000°E)
Time: 18:23:40
(UTC+00:00)

BREEZE-M DEB (TANK) - Pass Details

Date: 24 January 2021
Orbit: 440 x 13842 km, 45.9° (Epoch: 02 March)

Event Time Altitude Azimuth Distance (km) Brightness Sun altitude
Rises 16:42:43 0° 290° (WNW) 2,542 6.6 -7.9°
Reaches altitude 10° 16:44:49 10° 278° (W) 1,551 5.8 -8.2°
Maximum altitude 16:47:26 31° 212° (SSW) 861 3.9 -8.7°
Drops below altitude 10° 16:51:03 10° 148° (SSE) 2,150 5.2 -9.4°
Sets 16:54:36 0° 138° (SE) 3,852 6.4 -10.1°
